Location: Sears
(37.7625°N, 100.1060°W)
Time: 21:32:16
(UTC+00:00)

Cosmos 407 Rocket - Pass Details

Date: 29 October 2020
Orbit: 743 x 787 km, 74.1° (Epoch: 30 November)

Event Time Altitude Azimuth Distance (km) Brightness Sun altitude
Rises 12:27:04 0° 215° (SW) 3,167 6.4 -7.8°
Reaches altitude 10° 12:29:32 10° 223° (SW) 2,250 5.6 -7.3°
Maximum altitude 12:34:19 41° 293° (WNW) 1,074 3.8 -6.4°
Drops below altitude 10° 12:39:11 10° 4° (N) 2,279 5.9 -5.4°
Sets 12:41:42 0° 11° (NNE) 3,214 6.7 -4.9°
